Date String (YYYY-MM-DD hh:mm:ss) UTC,Instrument flags,Ambient pressure (hPa),Sample flow (lpm),Bypass flow (lpm),Sample temperature (°C),Ambient temperature (°C),ASC tube jacket temperature (°C),LED temperature (°C),Box temperature (°C),Sample RH (%),Span deviation,Mass concentration (μg/m³),Mass concentration (μg/m³),Mass concentration (μg/m³)
DateTimeUTC,F1_M11,P_M11,Q1_M11,Q2_M11,T1_M11,T2_M11,T3_M11,T4_M11,T5_M11,U1_M11,ZSPAN_M11,X0_M11,X2_M11,X1_M11
2023-05-20 14:00:00,,0837.3,5.00,0.00,28.3,26.8,00.0,36.7,30.0,27.8,0002.9,0086.55,0064.00,0061.14
2023-05-20 14:01:00,,0837.2,5.00,0.00,28.4,26.8,00.0,36.7,30.0,28.2,0002.9,0088.04,0064.49,0061.55
2023-05-20 14:02:00,,0837.2,5.00,0.00,28.4,26.8,00.0,36.7,30.0,28.3,0002.9,0089.85,0064.93,0061.91
2023-05-20 14:03:00,,0837.2,5.00,0.00,28.4,26.8,00.0,36.7,30.0,27.8,0002.9,0091.05,0065.43,0062.30
2023-05-20 14:04:00,,0837.2,5.00,0.00,28.4,26.8,00.0,36.7,30.0,27.6,0003.0,0091.19,0065.86,0062.62
2023-05-20 14:05:00,,0837.2,4.99,0.00,28.4,26.8,00.0,36.7,30.0,26.9,0003.0,0090.97,0065.92,0062.67
2023-05-20 14:06:00,,0837.2,5.00,0.00,28.4,26.8,00.0,36.7,30.0,26.7,0003.0,0090.62,0065.77,0062.56
2023-05-20 14:07:00,,0837.2,5.00,0.00,28.4,26.8,00.0,36.7,30.0,27.5,0003.0,0090.19,0065.82,0062.60
2023-05-20 14:08:00,,0837.3,5.00,0.00,28.4,26.8,00.0,36.7,30.0,28.4,0003.0,0091.07,0066.47,0063.20
2023-05-20 14:09:00,,0837.2,5.01,0.00,28.4,26.8,00.0,36.7,30.0,29.0,0003.0,0092.61,0067.20,0063.82
2023-05-20 14:10:00,,0837.2,5.00,0.00,28.4,26.8,00.0,36.7,30.0,29.1,0002.9,0093.51,0067.81,0064.35
2023-05-20 14:11:00,,0837.2,5.00,0.00,28.4,26.8,00.0,36.7,30.0,29.0,0002.9,0094.82,0068.36,0064.84
2023-05-20 14:12:00,,0837.2,5.01,0.00,28.4,26.8,00.0,36.7,30.0,28.9,0002.9,0094.38,0068.71,0065.23
2023-05-20 14:13:00,,0837.2,5.00,0.00,28.4,26.8,00.0,36.7,30.0,29.0,0002.9,0093.90,0069.11,0065.64
2023-05-20 14:14:00,,0837.2,5.01,0.00,28.4,26.8,00.0,36.7,30.0,29.3,0002.8,0094.12,0069.65,0066.17
2023-05-20 14:15:00,,0837.2,4.98,0.00,28.4,26.8,00.0,36.7,30.0,29.7,0002.8,0094.90,0070.31,0066.80
2023-05-20 14:16:00,,0837.3,5.01,0.00,28.4,26.8,00.0,36.7,30.0,29.6,0002.7,0096.23,0071.15,0067.59
2023-05-20 14:17:00,,0837.3,5.01,0.00,28.4,26.8,00.0,36.7,30.0,29.4,0002.7,0097.80,0072.17,0068.48
2023-05-20 14:18:00,,0837.3,4.98,0.00,28.4,26.8,00.0,36.7,30.0,29.6,0002.6,0099.19,0073.16,0069.46
2023-05-20 14:19:00,,0837.3,5.01,0.00,28.4,26.8,00.0,36.7,30.0,29.7,0002.6,0099.72,0073.59,0069.91
2023-05-20 14:20:00,,0837.2,5.00,0.00,28.4,26.9,00.0,36.7,30.0,29.8,0002.7,0099.86,0073.98,0070.27
2023-05-20 14:21:00,,0837.2,5.01,0.00,28.4,26.9,00.0,36.7,30.0,29.8,0002.7,0100.21,0074.23,0070.52
2023-05-20 14:22:00,,0837.2,5.00,0.00,28.4,26.9,00.0,36.7,30.0,30.0,0002.7,0100.06,0074.43,0070.70
2023-05-20 14:23:00,,0837.2,5.00,0.00,28.4,26.9,00.0,36.7,30.0,30.0,0002.7,0100.37,0074.67,0070.91
2023-05-20 14:24:00,,0837.3,5.00,0.00,28.4,26.9,00.0,36.7,30.0,29.8,0002.7,0100.30,0074.87,0071.11
2023-05-20 14:25:00,,0837.2,5.00,0.00,28.4,26.9,00.0,36.7,30.0,29.2,0002.8,0099.78,0074.86,0071.16
2023-05-20 14:26:00,,0837.2,4.99,0.00,28.4,26.9,00.0,36.7,30.0,28.4,0002.7,0099.52,0074.69,0071.08
2023-05-20 14:27:00,,0837.2,4.99,0.00,28.4,26.8,00.0,36.7,30.0,28.1,0002.7,0099.58,0074.63,0071.00
2023-05-20 14:28:00,,0837.2,4.99,0.00,28.4,26.9,00.0,36.7,30.0,28.5,0002.7,0099.42,0074.56,0070.97
2023-05-20 14:29:00,,0837.2,5.00,0.00,28.4,26.9,00.0,36.7,30.0,29.1,0002.7,0099.18,0074.42,0070.85
2023-05-20 14:30:00,,0837.2,5.01,0.00,28.4,26.9,00.0,36.7,30.0,29.1,0002.6,0099.30,0074.48,0070.83
2023-05-20 14:31:00,,0837.3,5.01,0.00,28.4,26.9,00.0,36.7,30.1,29.3,0002.5,0099.13,0074.29,0070.68
2023-05-20 14:32:00,,0837.2,5.00,0.00,28.4,26.9,00.0,36.7,30.1,28.5,0002.5,0098.70,0074.03,0070.48
2023-05-20 14:33:00,,0837.3,4.99,0.00,28.4,26.9,00.0,36.8,30.1,27.2,0002.6,0097.73,0073.56,0070.08
2023-05-20 14:34:00,,0837.4,5.00,0.00,28.4,26.9,00.0,36.8,30.1,28.1,0002.6,0097.23,0073.21,0069.75
2023-05-20 14:35:00,,0837.3,4.99,0.00,28.4,26.9,00.0,36.8,30.1,28.2,0002.6,0097.34,0073.17,0069.67
2023-05-20 14:36:00,,0837.3,5.00,0.00,28.4,26.9,00.0,36.8,30.1,28.0,0002.6,0097.53,0073.15,0069.59
2023-05-20 14:37:00,,0837.3,4.99,0.00,28.4,26.9,00.0,36.8,30.1,28.7,0002.6,0098.05,0073.35,0069.66
2023-05-20 14:38:00,,0837.4,5.00,0.00,28.4,26.9,00.0,36.8,30.1,29.0,0002.7,0098.24,0073.57,0069.84
2023-05-20 14:39:00,,0837.2,5.00,0.00,28.5,26.9,00.0,36.8,30.1,28.8,0002.7,0098.44,0073.73,0070.00
2023-05-20 14:40:00,,0837.2,5.01,0.00,28.5,26.9,00.0,36.8,30.1,28.5,0002.7,0098.96,0073.92,0070.12
2023-05-20 14:41:00,,0837.2,5.00,0.00,28.5,26.9,00.0,36.8,30.1,28.7,0002.9,0099.53,0074.02,0070.22
2023-05-20 14:42:00,,0837.2,5.00,0.00,28.5,26.9,00.0,36.8,30.1,29.1,0002.9,0099.78,0074.16,0070.36
2023-05-20 14:43:00,,0837.2,5.01,0.00,28.5,27.0,00.0,36.8,30.1,28.5,0003.0,0101.23,0074.64,0070.76
2023-05-20 14:44:00,,0837.2,5.00,0.00,28.5,27.0,00.0,36.8,30.1,28.9,0002.9,0102.37,0075.28,0071.37
2023-05-20 14:45:00,,0837.3,4.99,0.00,28.5,27.0,00.0,36.8,30.1,28.7,0002.9,0103.27,0075.76,0071.81
2023-05-20 14:46:00,,0837.2,4.99,0.00,28.5,27.0,00.0,36.8,30.1,29.0,0002.9,0103.46,0075.97,0072.03
2023-05-20 14:47:00,,0837.2,5.00,0.00,28.5,27.0,00.0,36.8,30.1,29.3,0002.8,0103.72,0076.24,0072.32
2023-05-20 14:48:00,,0837.2,5.00,0.00,28.5,27.0,00.0,36.8,30.2,29.3,0002.8,0103.72,0076.34,0072.52
2023-05-20 14:49:00,,0837.2,5.01,0.00,28.5,27.0,00.0,36.8,30.2,28.6,0002.7,0103.59,0076.35,0072.61
2023-05-20 14:50:00,,0837.2,5.00,0.00,28.5,27.0,00.0,36.8,30.2,28.9,0002.6,0103.55,0076.32,0072.61
2023-05-20 14:51:00,,0837.2,5.01,0.00,28.5,27.0,00.0,36.8,30.2,28.7,0002.7,0103.74,0076.37,0072.64
2023-05-20 14:52:00,,0837.2,5.00,0.00,28.5,27.0,00.0,36.8,30.2,28.4,0002.6,0103.17,0076.29,0072.60
2023-05-20 14:53:00,,0837.2,4.99,0.00,28.5,27.0,00.0,36.8,30.2,28.4,0002.6,0102.98,0076.16,0072.50
2023-05-20 14:54:00,,0837.2,4.99,0.00,28.5,27.0,00.0,36.8,30.2,28.0,0002.5,0102.29,0076.04,0072.37
2023-05-20 14:55:00,,0837.2,5.00,0.00,28.5,27.0,00.0,36.8,30.2,27.7,0002.5,0102.04,0075.93,0072.20
2023-05-20 14:56:00,,0837.2,5.00,0.00,28.5,27.0,00.0,36.8,30.2,28.0,0002.5,0101.85,0075.84,0072.10
2023-05-20 14:57:00,,0837.2,5.01,0.00,28.5,27.0,00.0,36.9,30.2,28.3,0002.6,0101.80,0075.73,0071.98
2023-05-20 14:58:00,,0837.2,5.00,0.00,28.5,27.0,00.0,36.9,30.2,28.4,0002.7,0101.69,0075.53,0071.79
2023-05-20 14:59:00,,0837.2,5.00,0.00,28.5,27.0,00.0,36.9,30.2,28.8,0002.7,0101.62,0075.42,0071.65
